Notices

What's New in latest Release from April 7th, 2021:

- Updated Glossary, including Speed of Maximum Gust, and Total Hourly Precipitation

- Updated national and regional climate services offices contacts and prices information

- Addition of station inventory lists for 1981-2010, 1971-2000, and 1961-1990 Normals.

If you haven't already, please take our survey and provide feedback about our website: https://eccc.sondage-survey.ca/f/LanguageSelection.aspx?s=442ca660-fcf1-47c0-95a9-59707d6fd709

Hourly Data Report for August 16, 2017

TORONTO CITY
ONTARIO

43°40'00.000" N
79°24'00.000" W
112.50 m
6158355
71508
XTO

Download Data

Hourly Data (August 2017)
Hourly Data Report for August 16, 2017
TIME
LST
Temp Definition
°C
Dew Point Definition
°C
Rel Hum Definition
%
Precip. Amount Definition
mm

Wind Dir Definition
10's deg

Wind Spd Definition
km/h
Visibility Definition
km
Stn Press Definition
kPa
Hmdx Definition


Wind Chill Definition


Weather Definition


00:00 20.1 14.5 70 0.0 LegendMM LegendMM   100.13     LegendNANA
01:00 19.5 15.5 78 0.0 LegendMM LegendMM   100.13     LegendNANA
02:00 18.9 15.3 80 0.0 LegendMM LegendMM   100.20     LegendNANA
03:00 18.8 15.5 81 0.0 LegendMM LegendMM   100.20     LegendNANA
04:00 18.0 15.2 84 0.0 LegendMM LegendMM   100.25     LegendNANA
05:00 18.3 15.4 83 0.0 LegendMM LegendMM   100.33     LegendNANA
06:00 18.2 15.7 85 0.0 LegendMM LegendMM   100.41     LegendNANA
07:00 18.9 15.8 82 0.0 LegendMM LegendMM   100.47     LegendNANA
08:00 20.6 15.0 71 0.0 LegendMM LegendMM   100.54 25   LegendNANA
09:00 20.4 14.4 68 0.0 LegendMM LegendMM   100.57     LegendNANA
10:00 21.3 13.2 60 0.0 LegendMM LegendMM   100.58     LegendNANA
11:00 22.0 13.6 59 0.0 LegendMM LegendMM   100.59 25   LegendNANA
12:00 22.0 12.9 56 0.0 LegendMM LegendMM   100.59 25   LegendNANA
13:00 22.5 12.5 53 0.0 LegendMM LegendMM   100.54 25   LegendNANA
14:00 22.0 12.5 55 0.0 LegendMM LegendMM   100.50 25   LegendNANA
15:00 22.2 12.7 55 0.0 LegendMM LegendMM   100.45 25   LegendNANA
16:00 22.1 14.2 61 0.0 LegendMM LegendMM   100.44 26   LegendNANA
17:00 22.2 13.8 59 0.0 LegendMM LegendMM   100.42 25   LegendNANA
18:00 21.6 13.4 60 0.0 LegendMM LegendMM   100.39 25   LegendNANA
19:00 21.4 13.8 62 0.0 LegendMM LegendMM   100.37 25   LegendNANA
20:00 20.7 14.4 67 0.0 LegendMM LegendMM   100.40     LegendNANA
21:00 20.6 14.7 69 0.0 LegendMM LegendMM   100.42     LegendNANA
22:00 20.4 15.0 71 0.0 LegendMM LegendMM   100.46     LegendNANA
23:00 20.0 15.0 73 0.0 LegendMM LegendMM   100.44     LegendNANA

Notes on Data Quality.

Legend

  • E = Estimated
  • M = Missing
  • NA = Not Available*
  • [empty] = Indicates an unobserved value
Date modified: